Regional Weather Roundup
Issued by NWS

Home | Current Version | Previous Version | Text Only | Print | Product List | Glossary On
Versions: 1 2 3 4 5 6 7 8 9 10 11 12 13 14 15 16 17 18 19 20 21 22 23 24 25 26 27 28 29 30 31 32 33 34 35 36 37 38 39 40 41 42 43 44 45 46 47 48 49 50
328
ASUS42 KFFC 030710
RWRGA
WEATHER ROUNDUP FOR GEORGIA
NATIONAL WEATHER SERVICE PEACHTREE CITY GA
200 AM EST SAT DEC 03 2016

NOTE: "FAIR" INDICATES FEW OR NO CLOUDS BELOW 12,000 FEET WITH NO
SIGNIFICANT WEATHER AND/OR OBSTRUCTIONS TO VISIBILITY.

* = USE WITH CAUTION. THE STATIONS MARKED WITH AN ASTERISK MAY NOT
REPORT WEATHER SUCH AS PRECIPITATION, FOG, OR THUNDER AND ARE NOT
QUALITY CONTROLLED BY NWS.

THE REMARK "TC" DENOTES TEMPERATURE READING IN DEGREES CELSIUS.

GAZ001>058-030800-
NORTH GEORGIA

CITY           SKY/WX    TMP DP  RH WIND       PRES   REMARKS
ATLANTA        CLOUDY    45  33  63 NW9       30.24F
ATHENS         CLOUDY    44  32  62 CALM      30.23R
CHAMBLEE       PTCLDY    39  34  82 CALM      30.25
PEACHTREE CITY MOCLDY    36  34  92 CALM      30.27
ROME           PTCLDY    35  32  88 SW3       30.27
WEST ATLANTA   PTCLDY    40  35  83 CALM      30.25
GAINESVILLE    PTCLDY    42  33  70 W7        30.24
CARTERSVILLE   CLOUDY    36  33  89 CALM      30.28


CITY           SKY/WX    TMP DP  RH WIND       PRES   REMARKS
DALTON*        CLOUDY    34  34 100 CALM      30.27R
MARIETTA       MOCLDY    40  34  80 CALM      30.25R
CANTON*        CLOUDY    45  25  45 CALM      30.25R
$$

GAZ059>098-102>109-030800-
CENTRAL GEORGIA

CITY           SKY/WX    TMP DP  RH WIND       PRES   REMARKS
AUGUSTA-BUSH   PTCLDY    37  34  89 CALM      30.21
AUGUSTA-DANIEL MOCLDY    47  30  51 CALM      30.21
COLUMBUS       MOCLDY    44  37  76 CALM      30.25F
MACON          PTCLDY    40  35  83 CALM      30.24
ROBINS AFB     PTCLDY    42  35  76 CALM      30.24R


CITY           SKY/WX    TMP DP  RH WIND       PRES   REMARKS
LAGRANGE*      MOCLDY    38  38 100 CALM      30.27S
SYLVANIA*      PTCLDY   N/A N/A N/A CALM      30.21F
MILLEDGEVILLE* PTCLDY    43  39  87 CALM      30.24R
$$

GAZ099>101-110>166-030800-
SOUTH GEORGIA

CITY           SKY/WX    TMP DP  RH WIND       PRES   REMARKS
SAVANNAH       PTCLDY    42  39  89 W3        30.22F
VALDOSTA       PTCLDY    41  36  82 CALM      30.22R
ALMA           CLOUDY    47  38  71 CALM      30.22S
ST SIMONS      PTCLDY    51  43  74 N3        30.20F
FT STEWART     PTCLDY    41  38  89 CALM      30.20R
ALBANY         CLOUDY    50  37  61 NE3       30.25F
HUNTER AFB     PTCLDY    42  42  99 W3        30.19F
MOODY AFB      PTCLDY    48  33  55 N6        30.21S
BRUNSWICK      PTCLDY    46  45  93 CALM      30.21S


CITY           SKY/WX    TMP DP  RH WIND       PRES   REMARKS
BAINBRIDGE*    CLOUDY    52  34  50 E5        30.22F
MOULTRIE*      CLOUDY    52  34  50 N3        30.24S
VIDALIA*       PTCLDY    46  39  76 CALM      30.22F
WAYCROSS*      CLOUDY    49  43  78 N5        30.22R
DOUGLAS*       MOCLDY    52  32  46 N5        30.24S
$$




USA.gov is the U.S. government's official web portal to all federal, state and local government web resources and services.